Location: Bailleul
(50.3375°N, 2.8513°E)
Time: 03:23:23
(UTC+00:00)

Cosmos 2016 Rocket - Pass Details

Date: 26 October 2021
Orbit: 947 x 1000 km, 83.0° (Epoch: 06 December)

Event Time Altitude Azimuth Distance (km) Brightness Sun altitude
Rises 04:42:15 0° 358° (N) 3,632 7.0 -17.6°
Reaches altitude 10° 04:45:38 10° 17° (NNE) 2,681 6.5 -17.1°
Maximum altitude 04:49:45 18° 59° (ENE) 2,133 6.6 -16.4°
Drops below altitude 10° 04:53:51 10° 102° (ESE) 2,677 7.6 -15.8°
Sets 04:57:13 0° 120° (ESE) 3,623 8.1 -15.2°
